TimeCST,TemperatureF,Dew PointF,Humidity,Sea Level PressureIn,VisibilityMPH,Wind Direction,Wind SpeedMPH,Gust SpeedMPH,PrecipitationIn,Events,Conditions,WindDirDegrees,DateUTC
6:00 AM,74,65,67,29.75,12,SE,5.8,,,,Clear,140,2013-01-08 12:00:00
6:00 AM,73.4,64.4,73,29.74,-9999.0,SE,5.8,-,N/A,,Clear,140,2013-01-08 12:00:00
7:00 AM,77.0,66.2,69,29.78,-9999.0,East,8.1,-,N/A,,Clear,100,2013-01-08 13:00:00
8:00 AM,84.2,66.2,55,29.80,6.2,East,11.5,-,N/A,,Partly Cloudy,80,2013-01-08 14:00:00
9:00 AM,87,65,38,29.83,12,ENE,11.5,,,,Scattered Clouds,60,2013-01-08 15:00:00
9:00 AM,87.8,64.4,46,29.82,6.2,ENE,11.5,-,N/A,,Partly Cloudy,60,2013-01-08 15:00:00
10:00 AM,86.0,66.2,51,29.83,6.2,NE,15.0,-,N/A,,Scattered Clouds,50,2013-01-08 16:00:00
11:00 AM,87.8,64.4,46,29.79,6.2,ENE,15.0,-,N/A,,Scattered Clouds,60,2013-01-08 17:00:00
12:00 PM,91,64,31,29.77,12,NE,18.4,,,,Scattered Clouds,50,2013-01-08 18:00:00
12:00 PM,91.4,64.4,41,29.75,6.2,NE,18.4,-,N/A,,Partly Cloudy,50,2013-01-08 18:00:00
1:00 PM,91.4,62.6,38,29.72,6.2,NE,17.3,-,N/A,,Partly Cloudy,50,2013-01-08 19:00:00
2:00 PM,93.2,62.6,36,29.70,6.2,ENE,15.0,-,N/A,,Partly Cloudy,60,2013-01-08 20:00:00
3:00 PM,93,60,23,29.71,12,NE,1.2,,,,Scattered Clouds,40,2013-01-08 21:00:00
3:00 PM,93.2,60.8,34,29.70,6.2,NE,18.4,-,N/A,,Partly Cloudy,40,2013-01-08 21:00:00
4:00 PM,91.4,60.8,36,29.70,6.2,ENE,15.0,-,N/A,,Partly Cloudy,60,2013-01-08 22:00:00
5:00 PM,87.8,64.4,46,29.71,6.2,ENE,15.0,-,N/A,,Partly Cloudy,70,2013-01-08 23:00:00
6:00 PM,84,68,50,29.74,12,ENE,17.3,,,,,70,2013-01-09 00:00:00
6:00 PM,84.2,68.0,58,29.72,-9999.0,ENE,17.3,-,N/A,,Clear,70,2013-01-09 00:00:00
7:00 PM,82.4,64.4,54,29.75,-9999.0,ENE,17.3,-,N/A,,Clear,70,2013-01-09 01:00:00
8:00 PM,80.6,66.2,61,29.77,-9999.0,ENE,16.1,-,N/A,,Clear,70,2013-01-09 02:00:00